EW7349 Weather Reports


time (UTC)temp
F
wind
direction
speed
knots
gust
knots
rain 1hr
in
rain 24hr
in
rain mn
in
humidity
%
barometer
mb
20260505152019 77 252 1.7 6.1 0.00 0.00 0.00 41 1012.5
20260505151521 76 207 1.7 6.1 0.00 0.00 0.00 43 1012.4
20260505151018 76 333 2.6 9.6 0.00 0.00 0.00 44 1012.5
20260505150518 75 180 1.7 9.6 0.00 0.00 0.00 46 1012.5
20260505140516 70 140 0.9 4.3 0.00 0.00 0.00 52 1012.6
20260505130242 63 215 1.7 5.2 0.00 0.00 0.00 60 1012.5
20260505125013 63 130 1.7 8.7 0.00 0.00 0.00 61 1012.7
20260505124507 62 241 1.7 8.7 0.00 0.00 0.00 61 1012.8
20260505124001 62 222 0.9 7.0 0.00 0.00 0.00 61 1012.8
20260505123455 62 265 1.7 5.2 0.00 0.00 0.00 62 1012.8
20260505122949 62 186 1.7 5.2 0.00 0.00 0.00 62 1012.8
20260505122444 61 198 0.9 5.2 0.00 0.00 0.00 63 1012.7
20260505121938 61 65 0.9 4.3 0.00 0.00 0.00 64 1012.6
20260505121433 61 217 1.7 6.1 0.00 0.00 0.00 63 1012.5
20260505120932 61 243 1.7 6.1 0.00 0.00 0.00 63 1012.4
20260505120431 61 194 1.7 6.1 0.00 0.00 0.00 63 1012.5
20260505115929 61 305 1.7 6.1 0.00 0.00 0.00 63 1012.6
20260505115430 60 304 1.7 7.0 0.00 0.00 0.00 63 1012.5
20260505114929 60 288 1.7 7.8 0.00 0.00 0.00 63 1012.6
20260505114430 60 158 1.7 7.8 0.00 0.00 0.00 64 1012.5
20260505113929 60 219 1.7 3.5 0.00 0.00 0.00 63 1012.4
20260505113428 60 241 0.9 5.2 0.00 0.00 0.00 63 1012.3
20260505112926 60 174 0.9 5.2 0.00 0.00 0.00 64 1012.3
20260505112904 60 184 1.7 6.1 0.00 0.00 0.00 63 1012.3
20260505111922 60 196 0.9 6.1 0.00 0.00 0.00 63 1012.3
20260505111422 60 204 1.7 7.8 0.00 0.00 0.00 64 1012.2
20260505110923 60 250 0.9 7.8 0.00 0.00 0.00 63 1012.1
20260505110421 60 248 0.9 6.1 0.00 0.00 0.00 63 1012.1
20260505110150 60 300 0.9 6.1 0.00 0.00 0.00 63 1012.0
20260505101852 60 250 1.7 7.8 0.00 0.00 0.00 61 1011.8
20260505101346 60 140 0.9 4.3 0.00 0.00 0.00 61 1011.8
20260505100839 60 168 0.9 4.3 0.00 0.00 0.00 61 1011.7
20260505100333 60 212 1.7 5.2 0.00 0.00 0.00 62 1011.7
20260505095827 60 211 1.7 6.1 0.00 0.00 0.00 61 1011.7
20260505095321 60 237 1.7 7.8 0.00 0.00 0.00 61 1011.7
20260505095040 60 164 1.7 7.8 0.00 0.00 0.00 61 1011.8
20260505094309 60 122 1.7 6.1 0.00 0.00 0.00 61 1011.7
20260505094029 60 203 1.7 6.1 0.00 0.00 0.00 61 1011.6
20260505093517 60 349 1.7 6.1 0.00 0.00 0.00 61 1011.6
20260505093013 60 142 1.7 6.1 0.00 0.00 0.00 61 1011.6
20260505092246 60 211 1.7 7.0 0.00 0.00 0.00 60 1011.6
20260505091739 60 218 1.7 7.0 0.00 0.00 0.00 61 1011.6
20260505091233 60 264 1.7 8.7 0.00 0.00 0.00 61 1011.5
20260505090728 60 123 1.7 8.7 0.00 0.00 0.00 60 1011.4
20260505090221 60 209 1.7 7.8 0.00 0.00 0.00 61 1011.5
20260505085715 60 217 1.7 7.8 0.00 0.00 0.00 60 1011.5
20260505085208 61 140 1.7 8.7 0.00 0.00 0.00 60 1011.4
20260505084927 61 212 1.7 8.7 0.00 0.00 0.00 60 1011.4
20260505084639 61 254 0.9 6.1 0.00 0.00 0.00 60 1011.5
20260505083653 61 286 0.9 4.3 0.00 0.00 0.00 60 1011.4
20260505083145 61 25 0.9 2.6 0.00 0.00 0.00 60 1011.3
20260505082638 61 219 0.9 3.5 0.00 0.00 0.00 60 1011.5
20260505082134 61 244 1.7 6.1 0.00 0.00 0.00 60 1011.5
20260505081627 61 239 1.7 6.1 0.00 0.00 0.00 60 1011.4
20260505081122 61 232 0.9 8.7 0.00 0.00 0.00 60 1011.4
20260505080615 61 229 0.9 8.7 0.00 0.00 0.00 60 1011.4
20260505080110 61 216 0.9 4.3 0.00 0.00 0.00 60 1011.3
20260505075603 61 257 0.9 4.3 0.00 0.00 0.00 61 1011.4
20260505075058 61 207 1.7 6.1 0.00 0.00 0.00 61 1011.3
20260505074551 61 232 0.9 6.1 0.00 0.00 0.00 61 1011.2
20260505074045 61 183 0.9 3.5 0.00 0.00 0.00 61 1011.1
20260505073539 61 199 0.9 3.5 0.00 0.00 0.00 61 1011.1
20260505073033 61 231 0.9 3.5 0.00 0.00 0.00 61 1011.1
20260505072527 61 189 1.7 6.1 0.00 0.00 0.00 61 1011.1
20260505072021 61 307 1.7 6.1 0.00 0.00 0.00 61 1011.1
20260505071516 61 223 0.9 3.5 0.00 0.00 0.00 61 1011.0
20260505071009 61 148 0.9 4.3 0.00 0.00 0.00 61 1011.1
20260505070503 61 284 1.7 4.3 0.00 0.00 0.00 62 1011.1
20260505065957 61 227 1.7 5.2 0.00 0.00 0.00 62 1011.0
20260505065452 61 229 0.9 5.2 0.00 0.00 0.00 62 1011.0
20260505064945 61 254 0.9 3.5 0.00 0.00 0.00 62 1010.8
20260505064439 61 284 1.7 6.1 0.00 0.00 0.00 63 1010.9
20260505063933 60 277 1.7 6.1 0.00 0.00 0.00 64 1010.8
20260505063427 60 195 0.9 4.3 0.00 0.00 0.00 64 1010.9
20260505062921 60 217 0.9 6.1 0.00 0.00 0.00 65 1010.8
20260505062415 60 166 1.7 6.1 0.00 0.00 0.00 66 1010.9
20260505061909 60 235 1.7 7.0 0.00 0.00 0.00 66 1010.8
20260505061403 60 254 0.9 7.0 0.00 0.00 0.00 66 1010.8
20260505060858 60 273 0.9 3.5 0.00 0.00 0.00 67 1010.8
20260505060358 60 227 0.9 3.5 0.00 0.00 0.00 68 1010.7
20260505055859 60 176 0.9 3.5 0.00 0.00 0.00 67 1010.8
20260505055400 60 206 0.0 2.6 0.00 0.00 0.00 68 1010.7
20260505054859 60 207 0.0 2.6 0.00 0.00 0.00 68 1010.8
20260505054359 60 131 0.0 1.7 0.00 0.00 0.00 68 1010.8
20260505053855 60 130 0.9 3.5 0.00 0.00 0.00 68 1010.8
20260505053358 60 288 0.9 3.5 0.00 0.00 0.00 68 1010.8
20260505052856 60 188 0.0 2.6 0.00 0.00 0.00 69 1010.8
20260505052355 60 154 0.0 1.7 0.00 0.00 0.00 68 1010.8
20260505051854 60 250 0.0 1.7 0.00 0.00 0.00 68 1010.8
20260505051353 60 211 0.0 0.9 0.00 0.00 0.00 68 1010.8
20260505050851 60 231 0.0 1.7 0.00 0.00 0.00 69 1010.8
20260505050349 60 234 0.0 1.7 0.00 0.00 0.00 69 1010.9
20260505041339 62 171 0.0 0.9 0.00 0.00 0.00 65 1010.8
20260505040838 62 171 0.0 0.9 0.00 0.00 0.00 65 1010.8
20260505040338 62 171 0.0 0.9 0.00 0.00 0.00 65 1010.9
20260505035840 62 224 0.0 0.9 0.00 0.00 0.00 64 1010.8
20260505035333 63 231 0.0 0.9 0.00 0.00 0.00 63 1010.7
20260505035054 63 213 0.0 0.0 0.00 0.00 0.00 63 1010.8
20260505034321 63 213 0.0 0.9 0.00 0.00 0.00 63 1010.8
20260505033816 63 213 0.0 2.6 0.00 0.00 0.00 62 1010.9
20260505033309 63 200 0.0 2.6 0.00 0.00 0.00 62 1010.8
20260505032803 64 142 0.0 2.6 0.00 0.00 0.00 62 1010.9
20260505032258 64 188 0.0 2.6 0.00 0.00 0.00 61 1010.9
20260505031751 64 214 0.0 2.6 0.00 0.00 0.00 60 1010.9
20260505031245 64 247 0.0 1.7 0.00 0.00 0.00 60 1011.0
20260505030739 64 341 0.0 1.7 0.00 0.00 0.00 59 1011.0
20260505030234 64 188 0.0 1.7 0.00 0.00 0.00 59 1011.0
20260505025727 65 188 0.9 2.6 0.00 0.00 0.00 59 1011.0
20260505025706 65 212 0.9 2.6 0.00 0.00 0.00 59 1011.0
20260505024716 65 198 0.0 1.7 0.00 0.00 0.00 58 1011.0
20260505024210 65 234 0.0 1.7 0.00 0.00 0.00 58 1011.0
20260505023703 65 234 0.0 1.7 0.00 0.00 0.00 57 1011.0
20260505023158 66 108 0.0 1.7 0.00 0.00 0.00 56 1010.9
20260505022658 66 313 0.0 2.6 0.00 0.00 0.00 56 1010.9
20260505022154 66 235 0.0 2.6 0.00 0.00 0.00 56 1010.9
20260505021653 66 199 0.0 2.6 0.00 0.00 0.00 55 1010.9
20260505021151 66 252 0.0 1.7 0.00 0.00 0.00 54 1010.9
20260505020912 67 242 0.0 1.7 0.00 0.00 0.00 53 1010.9
20260505020152 67 234 0.0 1.7 0.00 0.00 0.00 53 1010.9
20260505015653 67 234 0.0 1.7 0.00 0.00 0.00 53 1010.8
20260505015156 67 123 0.0 1.7 0.00 0.00 0.00 52 1010.8
20260505015133 67 190 0.0 1.7 0.00 0.00 0.00 51 1010.8
20260505014153 68 202 0.0 1.7 0.00 0.00 0.00 51 1010.7
20260505013654 68 243 0.0 1.7 0.00 0.00 0.00 50 1010.7
20260505013421 68 252 0.0 1.7 0.00 0.00 0.00 50 1010.7
20260505012649 68 207 0.0 1.7 0.00 0.00 0.00 49 1010.4
20260505012149 69 244 0.9 3.5 0.00 0.00 0.00 49 1010.6
20260505011649 69 198 0.9 3.5 0.00 0.00 0.00 48 1010.6
20260505011149 69 252 0.9 3.5 0.00 0.00 0.00 49 1010.6
20260505010648 69 104 0.0 2.6 0.00 0.00 0.00 47 1010.5
20260505010147 69 220 0.9 4.3 0.00 0.00 0.00 46 1010.4
20260505005909 70 243 0.9 4.3 0.00 0.00 0.00 47 1010.4
20260505005149 70 214 0.9 3.5 0.00 0.00 0.00 46 1010.3
20260505004649 70 234 0.0 1.7 0.00 0.00 0.00 45 1010.2
20260505004149 71 273 0.0 1.7 0.00 0.00 0.00 45 1010.2
20260505003908 71 312 0.0 1.7 0.00 0.00 0.00 44 1010.2
20260505003148 71 248 0.0 2.6 0.00 0.00 0.00 44 1010.2
20260505002648 71 252 0.9 5.2 0.00 0.00 0.00 44 1010.2
20260505002148 71 246 0.9 5.2 0.00 0.00 0.00 43 1010.2
20260505001647 72 225 0.9 7.0 0.00 0.00 0.00 43 1010.1
20260505001148 72 257 0.0 7.0 0.00 0.00 0.00 44 1010.1
20260505000647 72 197 0.0 0.9 0.00 0.00 0.00 44 1010.1
20260505000144 72 204 0.0 0.9 0.00 0.00 0.00 44 1010.1
20260504235644 73 232 0.0 0.9 0.00 0.00 0.00 43 1010.1
20260504235143 73 243 0.0 0.9 0.00 0.00 0.00 43 1010.1
20260504234646 73 198 0.0 0.9 0.00 0.00 0.00 43 1010.0
20260504234144 73 217 0.0 1.7 0.00 0.00 0.00 43 1010.0
20260504233645 73 217 0.9 3.5 0.00 0.00 0.00 40 1010.0
20260504233144 73 184 0.9 3.5 0.00 0.00 0.00 40 1010.1
20260504232645 73 207 0.9 3.5 0.00 0.00 0.00 40 1010.1
20260504232143 74 223 0.9 3.5 0.00 0.00 0.00 40 1009.9
20260504231645 74 263 0.9 4.3 0.00 0.00 0.00 40 1009.9
20260504230641 74 136 1.7 6.1 0.00 0.00 0.00 39 1009.7
20260504230143 74 248 1.7 7.0 0.00 0.00 0.00 39 1009.7
20260504225642 74 257 1.7 7.0 0.00 0.00 0.00 38 1009.7
20260504225633 74 217 0.9 7.0 0.00 0.00 0.00 38 1009.8
20260504224901 74 209 1.7 6.1 0.00 0.00 0.00 39 1009.8
20260504224142 74 315 1.7 10.4 0.00 0.00 0.00 38 1009.8
20260504223636 75 267 1.7 10.4 0.00 0.00 0.00 37 1009.8
20260504223130 75 179 1.7 9.6 0.00 0.00 0.00 37 1009.7
20260504222624 75 225 1.7 6.1 0.00 0.00 0.00 38 1009.7
20260504222118 75 317 1.7 5.2 0.00 0.00 0.00 38 1009.7
20260504221611 75 148 1.7 7.0 0.00 0.00 0.00 37 1009.8
20260504221104 75 234 2.6 9.6 0.00 0.00 0.00 37 1009.9
20260504220558 75 310 3.5 9.6 0.00 0.00 0.00 36 1009.9
20260504220052 76 228 2.6 9.6 0.00 0.00 0.00 37 1009.9
20260504215545 75 208 1.7 7.0 0.00 0.00 0.00 36 1010.0
20260504215301 75 236 1.7 8.7 0.00 0.00 0.00 36 1009.9
20260504214535 75 272 1.7 8.7 0.00 0.00 0.00 36 1009.8
20260504214245 75 308 1.7 7.8 0.00 0.00 0.00 36 1009.7
20260504213523 76 150 2.6 6.1 0.00 0.00 0.00 35 1009.7
20260504213016 76 219 1.7 9.6 0.00 0.00 0.00 36 1009.8
20260504212511 76 175 1.7 9.6 0.00 0.00 0.00 35 1009.8
20260504212004 76 140 1.7 8.7 0.00 0.00 0.00 35 1009.9
20260504211458 76 56 1.7 8.7 0.00 0.00 0.00 34 1009.8
20260504210952 76 133 1.7 5.2 0.00 0.00 0.00 34 1009.8
20260504210709 76 128 2.6 7.8 0.00 0.00 0.00 34 1009.9
20260504205941 76 219 2.6 7.8 0.00 0.00 0.00 34 1009.9
20260504205435 76 211 1.7 7.8 0.00 0.00 0.00 34 1009.8
20260504204928 76 217 1.7 7.8 0.00 0.00 0.00 33 1009.8
20260504204422 76 86 2.6 7.0 0.00 0.00 0.00 36 1009.9
20260504203916 75 188 2.6 7.0 0.00 0.00 0.00 33 1009.9
20260504203410 77 235 2.6 7.0 0.00 0.00 0.00 32 1010.0
20260504202904 77 281 1.7 5.2 0.00 0.00 0.00 32 1010.0
20260504202359 78 155 1.7 5.2 0.00 0.00 0.00 35 1010.0
20260504201851 79 321 1.7 7.8 0.00 0.00 0.00 32 1010.0
20260504201347 80 152 2.6 7.8 0.00 0.00 0.00 33 1009.9
20260504200841 80 230 2.6 7.8 0.00 0.00 0.00 30 1009.9
20260504200557 79 117 2.6 7.8 0.00 0.00 0.00 30 1009.8
20260504195828 80 171 2.6 7.8 0.00 0.00 0.00 31 1010.1
20260504195322 80 273 1.7 7.8 0.00 0.00 0.00 30 1010.0
20260504194816 80 146 1.7 7.8 0.00 0.00 0.00 29 1010.1
20260504194311 79 190 2.6 7.8 0.00 0.00 0.00 32 1010.2
20260504193804 78 288 2.6 7.8 0.00 0.00 0.00 31 1010.2
20260504193259 78 171 2.6 7.8 0.00 0.00 0.00 30 1010.3
20260504192752 78 169 2.6 9.6 0.00 0.00 0.00 29 1010.5
20260504192246 79 280 1.7 9.6 0.00 0.00 0.00 33 1010.4
20260504191741 79 345 1.7 5.2 0.00 0.00 0.00 29 1010.5
20260504191236 80 273 1.7 6.1 0.00 0.00 0.00 30 1010.6
20260504190951 79 273 1.7 8.7 0.00 0.00 0.00 29 1010.7
20260504190446 78 279 2.6 9.6 0.00 0.00 0.00 29 1010.8
20260504185934 79 19 2.6 9.6 0.00 0.00 0.00 29 1010.9
20260504185435 78 292 1.7 9.6 0.00 0.00 0.00 29 1011.0
20260504184704 78 175 2.6 9.6 0.00 0.00 0.00 29 1011.1
20260504184158 79 239 1.7 6.1 0.00 0.00 0.00 34 1011.1
20260504183652 77 295 2.6 11.3 0.00 0.00 0.00 31 1011.3
20260504183147 77 249 3.5 13.0 0.00 0.00 0.00 30 1011.4
20260504182640 77 289 3.5 7.8 0.00 0.00 0.00 29 1011.5
20260504182136 78 251 2.6 7.8 0.00 0.00 0.00 30 1011.7
20260504181629 78 145 2.6 7.0 0.00 0.00 0.00 30 1011.6
20260504181122 78 97 2.6 7.0 0.00 0.00 0.00 31 1011.7
20260504180616 78 252 2.6 6.1 0.00 0.00 0.00 30 1011.7
20260504180111 78 213 2.6 8.7 0.00 0.00 0.00 29 1011.7
20260504175606 76 318 2.6 9.6 0.00 0.00 0.00 32 1011.8
20260504175058 77 175 2.6 9.6 0.00 0.00 0.00 31 1011.8
20260504174552 77 129 2.6 7.8 0.00 0.00 0.00 30 1012.0
20260504174047 76 282 2.6 7.8 0.00 0.00 0.00 31 1012.1
20260504173540 77 242 2.6 7.0 0.00 0.00 0.00 34 1012.3
20260504173034 76 287 2.6 7.0 0.00 0.00 0.00 30 1012.3
20260504172529 74 277 2.6 7.0 0.00 0.00 0.00 32 1012.1
20260504172030 75 245 1.7 6.1 0.00 0.00 0.00 32 1012.3
20260504171753 75 37 2.6 7.0 0.00 0.00 0.00 33 1012.5
20260504171028 75 242 2.6 8.7 0.00 0.00 0.00 35 1012.4
20260504170529 76 336 1.7 9.6 0.00 0.00 0.00 32 1012.5